NEMO-HD

Last updated on Wed Sep 17 2025 00:02:31 GMT+0000 (Coordinated Universal Time)

1 46277U 20061F 25259.63597877 .00010595 00000+0 28778-3 0 9994 2 46277 97.2351 319.9347 0000939 65.8520 294.2823 15.37754904279843
UTC large
Height (km)
Speed (km/s)
/
Latitude / Longitude
Inclination (degrees)
Orbital Period (minutes)
Azimuth
Elevation
Range (km)
Doppler Factor

Next 0 passes for location: London (51.5072 / 0.1276)

Sorry there are no passes over London.